[[{"header":{"parameterUnit":"m.s-1","parameterCategory":1,"la1":30.2991,"la2":30.254,"lo1":-89.0895,"lo2":-89.0444,"dy":0.0017,"dx":0.0017,"nx":28,"ny":28,"refTime":"2025-02-10T03:00:00:Z","depth":0,"parameterNumber":2,"parameterNumberName":"U-component_of_WINDS"},"data":[0,0,0,0,0,0,0,0,0,0,0,0,0,0,0,0,0,0,0,0,0,0,0,0,0,0,0,0,0,0,0,0,0,0,0,0,0,0,0,0,0,0,0,0,0,0,0,0,0,0,0,0,0,0,0,0,0,0,-0.7974,-0.7973,0,-0.7887,-0.7886,-0.7885,-0.7823,-0.7823,-0.7822,-0.7822,-0.7732,-0.773,-0.7728,0,0,0,0,0,0,0,0,0,0,0,0,0,-0.8087,-0.8085,-0.7974,-0.7973,-0.7972,-0.7887,-0.7886,-0.7885,-0.7823,-0.7823,-0.7822,-0.7821,-0.7732,-0.773,-0.7728,0,0,0,0,0,0,0,0,0,0,0,0,0,-0.8023,-0.8085,-0.7974,-0.7931,-0.7926,-0.7888,-0.7886,-0.7885,-0.7823,-0.7823,-0.7822,-0.7821,-0.7733,-0.773,-0.7727,-0.7724,0,0,-0.7718,-0.7717,0,0,0,0,0,0,0,0,-0.8026,-0.8019,-0.7939,-0.7934,-0.7929,-0.7865,-0.7893,-0.7831,-0.7824,-0.7862,-0.7822,-0.7821,-0.7777,-0.777,-0.7755,-0.772,-0.7716,-0.7718,-0.7716,-0.7715,-0.7714,0,0,0,0,0,0,0,-0.8031,-0.8022,-0.794,-0.7937,-0.7931,-0.7916,-0.7906,-0.7881,-0.7825,-0.7859,-0.7854,-0.7845,-0.7774,-0.7758,-0.7753,-0.7715,-0.7718,-0.7716,-0.7714,-0.7713,-0.7673,-0.7674,0,0,0,0,0,0,-0.8042,-0.8026,-0.7942,-0.7937,-0.7977,-0.7915,-0.7903,-0.7886,-0.7825,-0.7815,-0.7846,-0.7842,-0.7764,-0.7756,-0.7749,-0.7741,-0.7715,-0.7712,-0.7711,-0.7673,-0.7673,-0.7674,0,0,0,0,0,0,-0.8045,-0.8035,-0.7946,-0.798,-0.7968,-0.7913,-0.7895,-0.7885,-0.7869,-0.7815,-0.7804,-0.784,-0.7763,-0.7753,-0.7731,-0.7737,-0.7711,-0.7709,-0.7672,-0.7673,-0.7674,-0.7726,0,0,0,0,0,0,-0.8048,-0.8037,-0.8035,-0.7981,-0.7966,-0.7929,-0.7895,-0.7884,-0.7865,-0.786,-0.7807,-0.7797,-0.7761,-0.7736,-0.7728,-0.7733,-0.7706,-0.7671,-0.7672,-0.7673,-0.7723,-0.7729,-0.7733,0,0,0,0,0,-0.8053,-0.8053,-0.8035,-0.8025,-0.7963,-0.793,-0.7921,-0.788,-0.7866,-0.7863,-0.7828,-0.7799,-0.7739,-0.7734,-0.7725,-0.7729,-0.767,-0.7672,-0.7673,-0.7721,-0.7728,-0.7733,0,0,0,0,0,0,-0.8109,-0.8045,-0.8024,-0.8007,-0.7975,-0.7919,-0.7915,-0.7889,-0.7859,-0.7855,-0.7806,-0.7794,-0.7777,-0.7751,-0.7747,-0.7723,-0.7701,-0.7701,-0.774,-0.7746,-0.7751,-0.7757,-0.7704,0,0,0,0,0,-0.8119,-0.8098,-0.8043,-0.8033,-0.8018,-0.797,-0.7954,-0.7925,-0.7889,-0.7875,-0.7838,-0.7804,-0.7777,-0.776,-0.7733,-0.772,-0.7708,-0.7719,-0.7724,-0.7728,-0.7728,-0.7719,-0.7723,-0.7679,-0.7679,-0.7679,0,0,-0.814,-0.8103,-0.8092,-0.8044,-0.8015,-0.7994,-0.7958,-0.7937,-0.7921,-0.7871,-0.7848,-0.782,-0.7779,-0.7762,-0.7752,-0.7739,-0.7737,-0.773,-0.7734,-0.7731,-0.7721,-0.7725,-0.7729,-0.768,-0.768,-0.768,0,0,-0.8168,-0.8138,-0.8126,-0.8098,-0.8055,-0.8023,-0.8021,-0.797,-0.7949,-0.7925,-0.7888,-0.7868,-0.7823,-0.7795,-0.7775,-0.7794,-0.7765,-0.7786,-0.7811,-0.7803,-0.7806,-0.7809,-0.7815,-0.7818,-0.7787,-0.7787,-0.7787,0,-0.8199,-0.8165,-0.8123,-0.8104,-0.8084,-0.8039,-0.8027,-0.8002,-0.7952,-0.7939,-0.7926,-0.7869,-0.7838,-0.7813,-0.7818,-0.7804,-0.7799,-0.7791,-0.781,-0.7812,-0.7814,-0.7819,-0.7821,-0.779,-0.7789,-0.7789,-0.7789,0,-0.8206,-0.8184,-0.8179,-0.8133,-0.8112,-0.8097,-0.8052,-0.8037,-0.801,-0.798,-0.7956,-0.7918,-0.7882,-0.7874,-0.7848,-0.7846,-0.784,-0.7819,-0.7795,-0.7821,-0.7825,-0.7827,-0.7793,-0.7792,-0.7792,-0.7791,0,0,-0.8264,-0.8195,-0.8194,-0.8173,-0.8123,-0.8104,-0.8088,-0.8053,-0.804,-0.8008,-0.7992,-0.7956,-0.7937,-0.7914,-0.7885,-0.7878,-0.7895,-0.7858,-0.7856,-0.7865,-0.7889,-0.7904,-0.7907,-0.7877,-0.7877,-0.7877,-0.7892,0,-0.8283,-0.8249,-0.8211,-0.8191,-0.817,-0.8128,-0.8113,-0.8081,-0.8053,-0.803,-0.7999,-0.7974,-0.7951,-0.7937,-0.7929,-0.7895,-0.7899,-0.7893,-0.7861,-0.786,-0.7871,-0.7909,-0.7924,-0.7941,-0.7894,-0.7894,-0.7894,0,-0.8299,-0.827,-0.8247,-0.82,-0.8189,-0.8177,-0.8142,-0.8121,-0.8084,-0.8064,-0.804,-0.8009,-0.7989,-0.797,-0.7941,-0.7939,-0.7924,-0.7905,-0.7905,-0.7899,-0.7877,-0.7903,-0.7945,-0.7947,-0.7896,-0.7896,-0.7896,0,-0.8343,-0.8298,-0.8278,-0.8261,-0.8205,-0.8197,-0.8174,-0.8136,-0.8118,-0.8088,-0.8075,-0.8044,-0.8026,-0.8002,-0.7963,-0.7953,-0.7939,-0.7916,-0.7921,-0.7922,-0.7918,-0.7919,-0.7957,-0.7912,-0.7912,-0.7912,-0.7911,0,-0.8367,-0.8355,-0.8297,-0.8285,-0.827,-0.8227,-0.8214,-0.8186,-0.8153,-0.8135,-0.8098,-0.8082,-0.8033,-0.8011,-0.7981,-0.7962,-0.7954,-0.7937,-0.7929,-0.7939,-0.7941,-0.7927,-0.7925,-0.7912,-0.7912,-0.7912,-0.7912,0,-0.8412,-0.8373,-0.8349,-0.8298,-0.8286,-0.8277,-0.8234,-0.822,-0.8191,-0.8169,-0.8161,-0.8114,-0.8087,-0.8046,-0.8007,-0.7987,-0.7972,-0.7959,-0.7984,-0.7979,-0.7986,-0.7985,-0.8015,-0.8016,-0.7972,-0.7972,-0.7973,0,-0.8429,-0.8419,-0.8367,-0.8353,-0.833,-0.8307,-0.8288,-0.8246,-0.8228,-0.8186,-0.8178,-0.8148,-0.8121,-0.8079,-0.8042,-0.8011,-0.7997,-0.801,-0.7992,-0.8003,-0.7996,-0.7996,-0.7995,-0.8013,-0.8014,-0.8015,-0.8015,0,-0.8463,-0.8444,-0.8419,-0.8387,-0.8365,-0.8338,-0.8309,-0.8299,-0.8251,-0.8232,-0.8204,-0.8183,-0.8143,-0.8114,-0.8078,-0.8054,-0.8026,-0.8021,-0.8021,-0.803,-0.8045,-0.8036,-0.7994,-0.802,-0.802,-0.8019,-0.8019,-0.8019,-0.8494,-0.8482,-0.8444,-0.8417,-0.8391,-0.8365,-0.835,-0.8319,-0.8294,-0.8258,-0.8235,-0.8208,-0.8172,-0.8122,-0.8099,-0.8077,-0.8066,-0.8065,-0.8065,-0.8065,-0.8068,-0.805,-0.8071,-0.8071,-0.8071,-0.8071,-0.807,0,-0.8525,-0.8499,-0.8474,-0.8434,-0.8413,-0.839,-0.8357,-0.8341,-0.8317,-0.8286,-0.8261,-0.8228,-0.82,-0.8161,-0.8129,-0.8119,-0.8106,-0.8112,-0.8112,-0.8107,-0.8081,-0.8084,-0.8124,-0.8124,-0.8124,-0.8124,-0.8124,-0.8124,-0.8538,-0.8518,-0.8495,-0.8461,-0.8435,-0.8408,-0.8391,-0.8367,-0.8342,-0.8307,-0.8283,-0.8258,-0.8224,-0.819,-0.8163,-0.8152,-0.8142,-0.8152,-0.8137,-0.8113,-0.8108,-0.8104,-0.8106,-0.815,-0.815,-0.8165,-0.8165,-0.8165]},{"header":{"parameterUnit":"m.s-1","parameterCategory":1,"la1":30.2991,"la2":30.254,"lo1":-89.0895,"lo2":-89.0444,"dy":0.0017,"dx":0.0017,"nx":28,"ny":28,"refTime":"2025-02-10T03:00:00:Z","depth":0,"parameterNumber":3,"parameterNumberName":"V-component_of_WINDS"},"data":[0,0,0,0,0,0,0,0,0,0,0,0,0,0,0,0,0,0,0,0,0,0,0,0,0,0,0,0,0,0,0,0,0,0,0,0,0,0,0,0,0,0,0,0,0,0,0,0,0,0,0,0,0,0,0,0,0,0,3.0624,3.0624,0,3.0621,3.0621,3.0621,3.0652,3.0653,3.0654,3.0655,3.0646,3.0645,3.0644,0,0,0,0,0,0,0,0,0,0,0,0,0,3.0655,3.0654,3.0624,3.0624,3.0624,3.0621,3.0621,3.0621,3.0652,3.0653,3.0654,3.0655,3.0646,3.0645,3.0644,0,0,0,0,0,0,0,0,0,0,0,0,0,3.0645,3.0654,3.0624,3.064,3.0641,3.0621,3.0621,3.0621,3.0652,3.0653,3.0654,3.0656,3.0647,3.0645,3.0644,3.0607,0,0,3.0639,3.0638,0,0,0,0,0,0,0,0,3.0646,3.0644,3.0637,3.0638,3.064,3.0638,3.0628,3.0616,3.0651,3.0647,3.0655,3.0656,3.0642,3.0641,3.0637,3.0607,3.0607,3.0639,3.0638,3.0637,3.0637,0,0,0,0,0,0,0,3.0646,3.0644,3.0623,3.0637,3.0639,3.0645,3.0646,3.0626,3.0637,3.0648,3.065,3.065,3.0643,3.0639,3.0637,3.0606,3.0639,3.0637,3.0636,3.0636,3.0547,3.0546,0,0,0,0,0,0,3.0645,3.0645,3.0623,3.0623,3.0646,3.0644,3.0644,3.0637,3.0637,3.0639,3.0648,3.0651,3.0641,3.0639,3.0637,3.0595,3.0637,3.0636,3.0635,3.0549,3.0547,3.0546,0,0,0,0,0,0,3.0646,3.0643,3.0623,3.0634,3.0632,3.0642,3.0634,3.0637,3.0632,3.0638,3.064,3.0642,3.0642,3.0639,3.0615,3.0595,3.0635,3.0633,3.055,3.0548,3.0546,3.0511,0,0,0,0,0,0,3.0647,3.0643,3.063,3.0634,3.0632,3.0602,3.0633,3.0636,3.063,3.0634,3.0633,3.0634,3.0643,3.0617,3.0614,3.0594,3.0632,3.0552,3.0549,3.0547,3.0514,3.0508,3.0503,0,0,0,0,0,3.0648,3.0619,3.0629,3.0627,3.0616,3.0601,3.0599,3.0612,3.0628,3.0615,3.0619,3.0634,3.0598,3.0615,3.0611,3.059,3.0553,3.055,3.0547,3.0516,3.0509,3.0503,0,0,0,0,0,0,3.061,3.062,3.0631,3.0603,3.0601,3.0606,3.059,3.0603,3.0595,3.0598,3.0613,3.0612,3.0586,3.0585,3.0603,3.0556,3.0579,3.0575,3.0557,3.055,3.0544,3.0544,3.0631,0,0,0,0,0,3.0599,3.0588,3.0596,3.057,3.0569,3.0579,3.0573,3.0583,3.0581,3.058,3.0582,3.0578,3.0566,3.0558,3.0547,3.0514,3.0515,3.0498,3.0493,3.0488,3.0484,3.0468,3.0461,3.0535,3.0535,3.0535,0,0,3.0575,3.0579,3.0571,3.0563,3.0563,3.055,3.0578,3.0563,3.0553,3.0577,3.0555,3.0557,3.0553,3.0525,3.0512,3.0524,3.0464,3.0484,3.0481,3.0479,3.0464,3.0457,3.045,3.0533,3.0534,3.0534,0,0,3.0525,3.0527,3.0507,3.0506,3.0506,3.0514,3.0509,3.0512,3.0515,3.0494,3.0512,3.05,3.0479,3.0476,3.0472,3.0423,3.0437,3.0419,3.039,3.0373,3.0367,3.0362,3.0345,3.0339,3.0415,3.0415,3.0415,0,3.0495,3.0478,3.0494,3.0478,3.0474,3.0498,3.0476,3.0475,3.047,3.0467,3.048,3.0456,3.0455,3.0427,3.0416,3.0411,3.0406,3.0419,3.0367,3.0362,3.0358,3.0341,3.0335,3.0413,3.0413,3.0414,3.0414,0,3.0441,3.0428,3.0411,3.0409,3.0404,3.0385,3.0397,3.0389,3.04,3.0406,3.0384,3.0385,3.0375,3.0369,3.0379,3.0343,3.035,3.0365,3.0388,3.0348,3.0333,3.0327,3.041,3.0411,3.0412,3.0412,0,0,3.0365,3.0374,3.0368,3.0368,3.037,3.036,3.0343,3.0336,3.0329,3.0325,3.0311,3.0294,3.0309,3.0304,3.0313,3.0299,3.0261,3.0316,3.0316,3.0306,3.0222,3.021,3.0203,3.0271,3.0269,3.0269,3.0222,0,3.0317,3.029,3.0304,3.0274,3.0263,3.0286,3.0271,3.027,3.0276,3.0266,3.0271,3.0259,3.028,3.0277,3.0264,3.0268,3.0244,3.0272,3.0256,3.0256,3.0256,3.0195,3.0183,3.0139,3.0217,3.0216,3.0215,0,3.0257,3.0253,3.0223,3.0229,3.0225,3.0211,3.0206,3.0197,3.0197,3.0202,3.0198,3.0211,3.0194,3.0218,3.0194,3.0213,3.0208,3.0209,3.0207,3.0206,3.0232,3.0192,3.0125,3.0119,3.0206,3.0206,3.0207,0,3.0206,3.0193,3.0174,3.0173,3.0179,3.0169,3.0171,3.0173,3.0168,3.0163,3.016,3.0153,3.0149,3.0142,3.0153,3.017,3.0128,3.0153,3.0131,3.0131,3.0121,3.0121,3.0052,3.0117,3.0118,3.0118,3.0118,0,3.015,3.013,3.0151,3.0139,3.0117,3.0135,3.0113,3.0117,3.0118,3.0107,3.0126,3.0114,3.013,3.012,3.0128,3.0107,3.0105,3.0108,3.011,3.0106,3.0106,3.0103,3.0106,3.0116,3.0116,3.0117,3.0117,0,3.0089,3.0102,3.0082,3.0091,3.0093,3.0077,3.0084,3.0072,3.008,3.0065,3.0063,3.0074,3.0063,3.0074,3.0063,3.0069,3.0041,3.0048,3.0042,3.0044,3.0022,3.0024,2.9948,2.9939,3.001,3.0009,3.0009,0,3.0052,3.0038,3.0046,3.0041,3.0043,3.0033,3.0029,3.0045,3.004,3.004,3.0029,3.002,3.0014,2.9996,3.0002,2.9994,3.0001,2.9975,3.0,2.9997,3.0001,3.0002,3.0001,2.997,2.9969,2.9968,2.9968,0,2.9986,2.9994,2.9988,2.9985,2.998,2.9978,2.9977,2.9971,2.9988,2.9981,2.9971,2.9967,2.9957,2.9948,2.9943,2.9944,2.9958,2.996,2.9955,2.995,2.9947,2.9949,3.0028,2.9961,2.9962,2.9963,2.9963,2.9963,2.9936,2.9925,2.993,2.9923,2.9925,2.9924,2.9914,2.9922,2.9914,2.9909,2.9919,2.9907,2.9908,2.9903,2.9902,2.9893,2.9903,2.9895,2.9893,2.9891,2.9888,2.9949,2.9892,2.9892,2.9892,2.9892,2.9892,0,2.9872,2.9877,2.987,2.9869,2.9864,2.988,2.988,2.9874,2.9864,2.9865,2.986,2.9849,2.9841,2.9848,2.9841,2.9832,2.9838,2.9829,2.983,2.983,2.9879,2.9884,2.9824,2.9824,2.9824,2.9824,2.9824,2.9824,2.9838,2.982,2.9829,2.9812,2.9817,2.9807,2.9805,2.9805,2.9806,2.9793,2.9788,2.9793,2.9796,2.979,2.9783,2.9785,2.9782,2.9771,2.9775,2.982,2.9827,2.9833,2.9838,2.977,2.977,2.9727,2.9727,2.9727]}]]